Overview Statistics Trail Chart Weather Telemetry Raw packets
 

This is the latest recevied weather packets stored in our database for station/object K7FLA. If no packets are shown the sender has not sent any weather packets the latest 10 day(s).

<< 77 78 79 80 81 82 83 >>
Time Temp. Humidity Pressure Rain* Wind** Luminosity Snow
1788108950 34.44° C 30% 1095.2 hPa 0 mm - 552 W/m² -
1788108646 34.44° C 29% 1095.2 hPa 0 mm - 536 W/m² -
1788108342 34.44° C 29% 1095.5 hPa 0 mm - 519 W/m² -
1788108038 33.89° C 29% 1095.3 hPa 0 mm - 502 W/m² -
1788107735 33.89° C 30% 1095.2 hPa 0 mm - 486 W/m² -
1788107434 33.89° C 31% 1095.4 hPa 0 mm - 469 W/m² -
1788107130 33.33° C 32% 1095.3 hPa 0 mm - 453 W/m² -
1788106825 33.33° C 33% 1095.3 hPa 0 mm - 436 W/m² -
1788106523 32.78° C 33% 1095.3 hPa 0 mm - 421 W/m² -
1788106220 32.22° C 33% 1095.3 hPa 0 mm - 404 W/m² -
1788105916 31.67° C 35% 1095.3 hPa 0 mm - 384 W/m² -
1788105611 30.56° C 35% 1095.3 hPa 0 mm - 368 W/m² -
1788105307 30° C 42% 1095.2 hPa 0 mm - 351 W/m² -
1788105002 28.89° C 42% 1095.3 hPa 0 mm - 335 W/m² -
1788104697 30.56° C 56% 1095.4 hPa 0 mm - 317 W/m² -
1788104394 31.67° C 37% 1095.3 hPa 0 mm - 301 W/m² -
1788104089 31.11° C 36% 1095.4 hPa 0 mm - 285 W/m² -
1788103788 31.11° C 37% 1095.3 hPa 0 mm - 269 W/m² -
1788103484 31.11° C 37% 1095.3 hPa 0 mm - 253 W/m² -
1788103177 31.11° C 40% 1095.5 hPa 0 mm - 236 W/m² -
1788102872 30.56° C 39% 1095.4 hPa 0 mm - 220 W/m² -
1788102567 30° C 42% 1095.4 hPa 0 mm - 204 W/m² -
1788102266 29.44° C 44% 1095.3 hPa 0 mm - 188 W/m² -
1788101960 28.89° C 44% 1095.5 hPa 0 mm - 172 W/m² -
1788101655 28.33° C 43% 1095.4 hPa 0 mm - 157 W/m² -

* Rain latest hour (hover to see other rain measurements)
** Current wind speed in m/s (hover to see current wind gust speed)